Location: Kirkcaldy
(50.3333°N, 113.2333°W)
Time: 03:34:57
(UTC+00:00)

Envisat - Pass Details

Date: 10 June 2023
Orbit: 763 x 764 km, 98.2° (Epoch: 22 September)

Event Time Altitude Azimuth Distance (km) Brightness Sun altitude
Rises 09:44:41 0° 33° (NNE) 3,241 8.5 -11.0°
Reaches altitude 10° 09:49:32 10° 74° (ENE) 2,307 6.2 -10.6°
Maximum altitude 09:50:19 10° 83° (E) 2,283 6.0 -10.6°
Drops below altitude 10° 09:51:06 10° 92° (E) 2,304 5.9 -10.5°
Sets 09:55:54 0° 133° (SE) 3,222 6.1 -10.1°
